Time,TemperatureF,DewpointF,PressureIn,WindDirection,WindDirectionDegrees,WindSpeedMPH,WindSpeedGustMPH,Humidity,HourlyPrecipIn,Conditions,Clouds,dailyrainin,SolarRadiationWatts/m^2,SoftwareType,DateUTC
2013-02-17 00:21:00,29.0,21.0,-100.00,ESE,110,1.0,2.0,71,0.00,,,0.00,0.000000,,2013-02-17 06:21:00,
2013-02-17 00:32:00,29.0,21.0,-100.00,ESE,110,1.0,2.0,71,0.00,,,0.00,0.000000,,2013-02-17 06:32:00,
2013-02-17 00:42:00,29.0,21.0,-100.00,ESE,110,1.0,2.0,71,0.00,,,0.00,0.000000,,2013-02-17 06:42:00,
2013-02-17 00:52:00,29.0,21.0,-100.00,ESE,110,1.0,2.0,71,0.00,,,0.00,0.000000,,2013-02-17 06:52:00,
2013-02-17 01:01:00,29.0,21.0,-100.00,ESE,110,1.0,2.0,71,0.00,,,0.00,0.000000,,2013-02-17 07:01:00,
2013-02-17 01:32:00,29.0,18.0,-100.00,ESE,113,0.0,2.0,62,0.00,,,0.00,0.000000,,2013-02-17 07:32:00,
2013-02-17 01:42:00,29.0,18.0,-100.00,ESE,113,0.0,2.0,62,0.00,,,0.00,0.000000,,2013-02-17 07:42:00,
2013-02-17 01:52:00,29.0,18.0,-100.00,ESE,113,0.0,2.0,62,0.00,,,0.00,0.000000,,2013-02-17 07:52:00,
2013-02-17 02:01:00,29.0,18.0,-100.00,ESE,113,0.0,2.0,62,0.00,,,0.00,0.000000,,2013-02-17 08:01:00,
2013-02-17 02:32:00,29.0,19.0,-100.00,ESE,108,1.0,2.0,65,0.00,,,0.00,0.000000,,2013-02-17 08:32:00,
2013-02-17 02:42:00,29.0,19.0,-100.00,ESE,108,1.0,2.0,65,0.00,,,0.00,0.000000,,2013-02-17 08:42:00,
2013-02-17 02:52:00,29.0,19.0,-100.00,ESE,108,1.0,2.0,65,0.00,,,0.00,0.000000,,2013-02-17 08:52:00,
2013-02-17 03:01:00,29.0,19.0,-100.00,ESE,108,1.0,2.0,65,0.00,,,0.00,0.000000,,2013-02-17 09:01:00,
2013-02-17 03:21:00,30.0,20.0,-100.00,ESE,105,2.0,3.0,66,0.00,,,-99.99,0.000000,,2013-02-17 09:21:00,
2013-02-17 03:32:00,30.0,20.0,-100.00,ESE,105,2.0,3.0,66,0.00,,,-99.99,0.000000,,2013-02-17 09:32:00,
2013-02-17 03:42:00,30.0,20.0,-100.00,ESE,105,2.0,3.0,66,0.00,,,-99.99,0.000000,,2013-02-17 09:42:00,
2013-02-17 03:52:00,30.0,20.0,-100.00,ESE,105,2.0,3.0,66,0.00,,,-99.99,0.000000,,2013-02-17 09:52:00,
2013-02-17 04:01:00,30.0,20.0,-100.00,ESE,105,2.0,3.0,66,0.00,,,-99.99,0.000000,,2013-02-17 10:01:00,
2013-02-17 04:32:00,30.0,17.0,-100.00,ESE,110,2.0,4.0,59,0.00,,,0.00,0.000000,,2013-02-17 10:32:00,
2013-02-17 04:42:00,30.0,17.0,-100.00,ESE,110,2.0,4.0,59,0.00,,,0.00,0.000000,,2013-02-17 10:42:00,
2013-02-17 04:52:00,30.0,17.0,-100.00,ESE,110,2.0,4.0,59,0.00,,,0.00,0.000000,,2013-02-17 10:52:00,
2013-02-17 05:01:00,30.0,17.0,-100.00,ESE,110,2.0,4.0,59,0.00,,,0.00,0.000000,,2013-02-17 11:01:00,
2013-02-17 05:02:00,31.0,16.0,-100.00,East,90,3.0,4.0,54,0.00,,,0.00,0.000000,,2013-02-17 11:02:00,
2013-02-17 05:32:00,31.0,16.0,-100.00,East,90,3.0,4.0,54,0.00,,,0.00,0.000000,,2013-02-17 11:32:00,
2013-02-17 05:42:00,31.0,16.0,-100.00,East,90,3.0,4.0,54,0.00,,,0.00,0.000000,,2013-02-17 11:42:00,
2013-02-17 05:52:00,31.0,16.0,-100.00,East,90,3.0,4.0,54,0.00,,,0.00,0.000000,,2013-02-17 11:52:00,
2013-02-17 06:02:00,32.0,18.0,-100.00,East,80,4.0,6.0,56,0.00,,,0.00,0.000000,,2013-02-17 12:02:00,
2013-02-17 06:32:00,32.0,18.0,-100.00,East,80,4.0,6.0,56,0.00,,,0.00,0.000000,,2013-02-17 12:32:00,
2013-02-17 06:42:00,32.0,18.0,-100.00,East,80,4.0,6.0,56,0.00,,,0.00,0.000000,,2013-02-17 12:42:00,
2013-02-17 06:52:00,32.0,18.0,-100.00,East,80,4.0,6.0,56,0.00,,,0.00,0.000000,,2013-02-17 12:52:00,
2013-02-17 07:32:00,32.0,19.0,-100.00,East,85,4.0,7.0,58,0.00,,,-99.99,1.000000,,2013-02-17 13:32:00,
2013-02-17 07:42:00,32.0,19.0,-100.00,East,85,4.0,7.0,58,0.00,,,-99.99,1.000000,,2013-02-17 13:42:00,
2013-02-17 07:52:00,32.0,19.0,-100.00,East,85,4.0,7.0,58,0.00,,,-99.99,1.000000,,2013-02-17 13:52:00,
2013-02-17 08:01:00,32.0,19.0,-100.00,East,85,4.0,7.0,58,0.00,,,-99.99,1.000000,,2013-02-17 14:01:00,
2013-02-17 08:02:00,36.0,20.0,-100.00,ENE,77,4.0,7.0,52,0.00,,,0.00,56.000000,,2013-02-17 14:02:00,
2013-02-17 08:32:00,36.0,20.0,-100.00,ENE,77,4.0,7.0,52,0.00,,,0.00,56.000000,,2013-02-17 14:32:00,
2013-02-17 08:42:00,36.0,20.0,-100.00,ENE,77,4.0,7.0,52,0.00,,,0.00,56.000000,,2013-02-17 14:42:00,
2013-02-17 08:53:00,36.0,20.0,-100.00,ENE,77,4.0,7.0,52,0.00,,,0.00,56.000000,,2013-02-17 14:53:00,
2013-02-17 09:22:00,42.0,23.0,-100.00,East,91,6.0,10.0,47,0.00,,,0.00,294.000000,,2013-02-17 15:22:00,
2013-02-17 09:32:00,42.0,23.0,-100.00,East,91,6.0,10.0,47,0.00,,,0.00,294.000000,,2013-02-17 15:32:00,
2013-02-17 09:42:00,42.0,23.0,-100.00,East,91,6.0,10.0,47,0.00,,,0.00,294.000000,,2013-02-17 15:42:00,
2013-02-17 09:52:00,42.0,23.0,-100.00,East,91,6.0,10.0,47,0.00,,,0.00,294.000000,,2013-02-17 15:52:00,
2013-02-17 10:01:00,42.0,23.0,-100.00,East,91,6.0,10.0,47,0.00,,,0.00,294.000000,,2013-02-17 16:01:00,
2013-02-17 10:02:00,47.0,26.0,-100.00,East,101,5.0,9.0,44,0.00,,,-99.99,515.000000,,2013-02-17 16:02:00,
2013-02-17 10:32:00,47.0,26.0,-100.00,East,101,5.0,9.0,44,0.00,,,-99.99,515.000000,,2013-02-17 16:32:00,
2013-02-17 10:42:00,47.0,26.0,-100.00,East,101,5.0,9.0,44,0.00,,,-99.99,515.000000,,2013-02-17 16:42:00,
2013-02-17 10:52:00,47.0,26.0,-100.00,East,101,5.0,9.0,44,0.00,,,-99.99,515.000000,,2013-02-17 16:52:00,
2013-02-17 11:02:00,52.0,28.0,-100.00,South,169,4.0,9.0,40,0.00,,,0.00,687.000000,,2013-02-17 17:02:00,
2013-02-17 11:32:00,52.0,28.0,-100.00,South,169,4.0,9.0,40,0.00,,,0.00,687.000000,,2013-02-17 17:32:00,
2013-02-17 11:42:00,52.0,28.0,-100.00,South,169,4.0,9.0,40,0.00,,,0.00,687.000000,,2013-02-17 17:42:00,
2013-02-17 11:52:00,52.0,28.0,-100.00,South,169,4.0,9.0,40,0.00,,,0.00,687.000000,,2013-02-17 17:52:00,
2013-02-17 12:33:00,58.0,31.0,-100.00,SSW,213,4.0,7.0,35,0.00,,,0.00,809.000000,,2013-02-17 18:33:00,
2013-02-17 12:42:00,58.0,31.0,-100.00,SSW,213,4.0,7.0,35,0.00,,,0.00,809.000000,,2013-02-17 18:42:00,
2013-02-17 12:52:00,58.0,31.0,-100.00,SSW,213,4.0,7.0,35,0.00,,,0.00,809.000000,,2013-02-17 18:52:00,
2013-02-17 13:01:00,58.0,31.0,-100.00,SSW,213,4.0,7.0,35,0.00,,,0.00,809.000000,,2013-02-17 19:01:00,
2013-02-17 13:02:00,63.0,33.0,-100.00,SSW,200,4.0,9.0,32,0.00,,,0.00,852.000000,,2013-02-17 19:02:00,
2013-02-17 13:32:00,63.0,33.0,-100.00,SSW,200,4.0,9.0,32,0.00,,,0.00,852.000000,,2013-02-17 19:32:00,
2013-02-17 13:42:00,63.0,33.0,-100.00,SSW,200,4.0,9.0,32,0.00,,,0.00,852.000000,,2013-02-17 19:42:00,
2013-02-17 13:52:00,63.0,33.0,-100.00,SSW,200,4.0,9.0,32,0.00,,,0.00,852.000000,,2013-02-17 19:52:00,
2013-02-17 14:02:00,68.0,33.0,-100.00,South,183,6.0,14.0,27,0.00,,,0.00,814.000000,,2013-02-17 20:02:00,
2013-02-17 14:32:00,68.0,33.0,-100.00,South,183,6.0,14.0,27,0.00,,,0.00,814.000000,,2013-02-17 20:32:00,
2013-02-17 14:42:00,68.0,33.0,-100.00,South,183,6.0,14.0,27,0.00,,,0.00,814.000000,,2013-02-17 20:42:00,
2013-02-17 14:52:00,68.0,33.0,-100.00,South,183,6.0,14.0,27,0.00,,,0.00,814.000000,,2013-02-17 20:52:00,
2013-02-17 15:32:00,71.0,30.0,-100.00,SSW,199,8.0,17.0,22,0.00,,,0.00,701.000000,,2013-02-17 21:32:00,
2013-02-17 15:42:00,71.0,30.0,-100.00,SSW,199,8.0,17.0,22,0.00,,,0.00,701.000000,,2013-02-17 21:42:00,
2013-02-17 15:53:00,71.0,30.0,-100.00,SSW,199,8.0,17.0,22,0.00,,,0.00,701.000000,,2013-02-17 21:53:00,
2013-02-17 16:01:00,71.0,30.0,-100.00,SSW,199,8.0,17.0,22,0.00,,,0.00,701.000000,,2013-02-17 22:01:00,
2013-02-17 16:02:00,71.0,27.0,-100.00,SSW,200,7.0,15.0,19,0.00,,,0.00,526.000000,,2013-02-17 22:02:00,
2013-02-17 16:32:00,71.0,27.0,-100.00,SSW,200,7.0,15.0,19,0.00,,,0.00,526.000000,,2013-02-17 22:32:00,
2013-02-17 16:42:00,71.0,27.0,-100.00,SSW,200,7.0,15.0,19,0.00,,,0.00,526.000000,,2013-02-17 22:42:00,
2013-02-17 16:52:00,71.0,27.0,-100.00,SSW,200,7.0,15.0,19,0.00,,,0.00,526.000000,,2013-02-17 22:52:00,
2013-02-17 17:32:00,70.0,27.0,-100.00,SSW,210,7.0,19.0,20,0.00,,,0.00,282.000000,,2013-02-17 23:32:00,
2013-02-17 17:42:00,70.0,27.0,-100.00,SSW,210,7.0,19.0,20,0.00,,,0.00,282.000000,,2013-02-17 23:42:00,
2013-02-17 17:52:00,70.0,27.0,-100.00,SSW,210,7.0,19.0,20,0.00,,,0.00,282.000000,,2013-02-17 23:52:00,
2013-02-17 18:01:00,70.0,27.0,-100.00,SSW,210,7.0,19.0,20,0.00,,,0.00,282.000000,,2013-02-18 00:01:00,
2013-02-17 18:32:00,64.0,27.0,-100.00,South,190,4.0,15.0,25,0.00,,,0.00,74.000000,,2013-02-18 00:32:00,
2013-02-17 18:42:00,64.0,27.0,-100.00,South,190,4.0,15.0,25,0.00,,,0.00,74.000000,,2013-02-18 00:42:00,
2013-02-17 18:52:00,64.0,27.0,-100.00,South,190,4.0,15.0,25,0.00,,,0.00,74.000000,,2013-02-18 00:52:00,
2013-02-17 19:01:00,64.0,27.0,-100.00,South,190,4.0,15.0,25,0.00,,,0.00,74.000000,,2013-02-18 01:01:00,
2013-02-17 19:21:00,61.0,28.0,-100.00,SSE,162,4.0,8.0,28,0.00,,,0.00,1.000000,,2013-02-18 01:21:00,
2013-02-17 19:32:00,61.0,28.0,-100.00,SSE,162,4.0,8.0,28,0.00,,,0.00,1.000000,,2013-02-18 01:32:00,
2013-02-17 19:42:00,61.0,28.0,-100.00,SSE,162,4.0,8.0,28,0.00,,,0.00,1.000000,,2013-02-18 01:42:00,
2013-02-17 19:52:00,61.0,28.0,-100.00,SSE,162,4.0,8.0,28,0.00,,,0.00,1.000000,,2013-02-18 01:52:00,
2013-02-17 20:01:00,61.0,28.0,-100.00,SSE,162,4.0,8.0,28,0.00,,,0.00,1.000000,,2013-02-18 02:01:00,
2013-02-17 20:22:00,58.0,28.0,-100.00,SSE,148,3.0,6.0,32,0.00,,,0.00,0.000000,,2013-02-18 02:22:00,
2013-02-17 20:32:00,58.0,28.0,-100.00,SSE,148,3.0,6.0,32,0.00,,,0.00,0.000000,,2013-02-18 02:32:00,
2013-02-17 20:42:00,58.0,28.0,-100.00,SSE,148,3.0,6.0,32,0.00,,,0.00,0.000000,,2013-02-18 02:42:00,
2013-02-17 20:52:00,58.0,28.0,-100.00,SSE,148,3.0,6.0,32,0.00,,,0.00,0.000000,,2013-02-18 02:52:00,
2013-02-17 21:01:00,58.0,28.0,-100.00,SSE,148,3.0,6.0,32,0.00,,,0.00,0.000000,,2013-02-18 03:01:00,
2013-02-17 21:32:00,54.0,30.0,-100.00,East,87,2.0,7.0,40,0.00,,,-99.99,0.000000,,2013-02-18 03:32:00,
2013-02-17 21:42:00,54.0,30.0,-100.00,East,87,2.0,7.0,40,0.00,,,-99.99,0.000000,,2013-02-18 03:42:00,
2013-02-17 21:52:00,54.0,30.0,-100.00,East,87,2.0,7.0,40,0.00,,,-99.99,0.000000,,2013-02-18 03:52:00,
2013-02-17 22:01:00,54.0,30.0,-100.00,East,87,2.0,7.0,40,0.00,,,-99.99,0.000000,,2013-02-18 04:01:00,
2013-02-17 22:02:00,51.0,31.0,-100.00,East,79,2.0,4.0,47,0.00,,,0.00,0.000000,,2013-02-18 04:02:00,
2013-02-17 22:22:00,51.0,31.0,-100.00,East,79,2.0,4.0,47,0.00,,,0.00,0.000000,,2013-02-18 04:22:00,
2013-02-17 22:32:00,51.0,31.0,-100.00,East,79,2.0,4.0,47,0.00,,,0.00,0.000000,,2013-02-18 04:32:00,
2013-02-17 22:42:00,51.0,31.0,-100.00,East,79,2.0,4.0,47,0.00,,,0.00,0.000000,,2013-02-18 04:42:00,
2013-02-17 22:52:00,51.0,31.0,-100.00,East,79,2.0,4.0,47,0.00,,,0.00,0.000000,,2013-02-18 04:52:00,
2013-02-17 23:02:00,54.0,34.0,-100.00,SSE,154,5.0,11.0,46,0.00,,,0.00,0.000000,,2013-02-18 05:02:00,
2013-02-17 23:32:00,54.0,34.0,-100.00,SSE,154,5.0,11.0,46,0.00,,,0.00,0.000000,,2013-02-18 05:32:00,
2013-02-17 23:42:00,54.0,34.0,-100.00,SSE,154,5.0,11.0,46,0.00,,,0.00,0.000000,,2013-02-18 05:42:00,
2013-02-17 23:52:00,54.0,34.0,-100.00,SSE,154,5.0,11.0,46,0.00,,,0.00,0.000000,,2013-02-18 05:52:00,